EW5291 Weather Reports


Display with metric or nautical units.
time (UTC)temp
F
wind
direction
speed
MPH
gust
MPH
rain 1hr
in
rain 24hr
in
rain mn
in
humidity
%
barometer
mb
20260505173504 81 191 1.0 11.0 0.00 0.00 0.00 32 1006.4
20260505173115 81 190 0.0 12.0 0.00 0.00 0.00 34 1006.7
20260505172503 81 190 2.0 11.0 0.00 0.00 0.00 32 1006.5
20260505171628 81 190 1.0 11.0 0.00 0.00 0.00 32 1006.8
20260505171504 81 191 1.0 7.0 0.00 0.00 0.00 32 1006.6
20260505171003 82 191 0.0 7.0 0.00 0.00 0.00 31 1006.5
20260505170503 82 191 1.0 6.0 0.00 0.00 0.00 30 1006.5
20260505170004 82 191 1.0 6.0 0.00 0.00 0.00 30 1006.8
20260505165003 80 191 1.0 7.0 0.00 0.00 0.00 32 1007.0
20260505164607 79 190 0.0 8.0 0.00 0.00 0.00 37 1007.3
20260505164504 79 191 1.0 8.0 0.00 0.00 0.00 34 1007.1
20260505164003 79 191 1.0 8.0 0.00 0.00 0.00 35 1007.3
20260505163503 79 191 1.0 5.0 0.00 0.00 0.00 35 1007.4
20260505163004 79 191 1.0 5.0 0.00 0.00 0.00 34 1007.5
20260505162503 78 191 1.0 7.0 0.00 0.00 0.00 36 1007.6
20260505161503 77 190 0.0 11.0 0.00 0.00 0.00 36 1008.1
20260505153003 74 190 1.0 6.0 0.00 0.00 0.00 40 1008.8
20260505152504 75 190 0.0 6.0 0.00 0.00 0.00 39 1008.7
20260505152003 75 191 0.0 4.0 0.00 0.00 0.00 43 1008.7
20260505151504 74 190 0.0 4.0 0.00 0.00 0.00 39 1009.0
20260505151004 75 191 0.0 2.0 0.00 0.00 0.00 40 1008.7
20260505140503 68 191 0.0 4.0 0.00 0.00 0.00 49 1009.1
20260505130132 64 190 0.0 4.0 0.00 0.00 0.00 54 1009.7
20260505124540 63 190 0.0 4.0 0.00 0.00 0.00 57 1009.6
20260505123025 62 190 0.0 0.0 0.00 0.00 0.00 61 1009.6
20260505121531 59 190 0.0 3.0 0.00 0.00 0.00 64 1009.7
20260505120015 58 190 0.0 0.0 0.00 0.00 0.00 68 1009.9
20260505114514 57 190 0.0 0.0 0.00 0.00 0.00 68 1010.0
20260505113011 57 190 0.0 1.0 0.00 0.00 0.00 69 1009.9
20260505111505 56 190 0.0 0.0 0.00 0.00 0.00 71 1009.7
20260505101600 53 190 0.0 0.0 0.00 0.00 0.00 70 1009.1
20260505100138 52 190 0.0 0.0 0.00 0.00 0.00 74 1008.9
20260505094557 49 190 0.0 0.0 0.00 0.00 0.00 75 1008.9
20260505093056 47 190 0.0 0.0 0.00 0.00 0.00 78 1009.0
20260505091616 47 190 0.0 0.0 0.00 0.00 0.00 76 1009.2
20260505090100 47 190 0.0 0.0 0.00 0.00 0.00 76 1009.1
20260505084550 48 190 0.0 0.0 0.00 0.00 0.00 73 1009.2
20260505083052 49 190 0.0 0.0 0.00 0.00 0.00 72 1009.3
20260505081549 50 190 0.0 0.0 0.00 0.00 0.00 71 1009.3
20260505080052 51 190 0.0 0.0 0.00 0.00 0.00 69 1009.2
20260505074546 52 190 0.0 1.0 0.00 0.00 0.00 67 1009.4
20260505073055 51 190 0.0 0.0 0.00 0.00 0.00 70 1009.4
20260505071546 49 190 0.0 0.0 0.00 0.00 0.00 73 1009.4
20260505070040 49 190 0.0 0.0 0.00 0.00 0.00 71 1009.5
20260505064537 50 190 0.0 0.0 0.00 0.00 0.00 69 1009.5
20260505063044 51 190 0.0 0.0 0.00 0.00 0.00 67 1009.7
20260505061534 52 190 0.0 0.0 0.00 0.00 0.00 65 1009.8
20260505060029 53 190 0.0 0.0 0.00 0.00 0.00 64 1009.8
20260505054536 53 190 0.0 0.0 0.00 0.00 0.00 65 1010.0
20260505053026 53 190 0.0 0.0 0.00 0.00 0.00 64 1010.1
20260505051535 54 190 0.0 0.0 0.00 0.00 0.00 63 1010.2
20260505041526 55 190 0.0 0.0 0.00 0.00 0.00 61 1010.3
20260505040014 55 190 0.0 1.0 0.00 0.00 0.00 60 1010.3
20260505034513 55 190 0.0 4.0 0.00 0.00 0.00 59 1010.1
20260505033012 55 190 0.0 2.0 0.00 0.00 0.00 58 1010.1
20260505031524 56 190 0.0 1.0 0.00 0.00 0.00 57 1010.0
20260505031003 56 0 0.0 0.0 0.00 0.00 0.00 56 1009.6
20260505030503 56 191 0.0 5.0 0.00 0.00 0.00 55 1009.3
20260505030012 56 190 0.0 5.0 0.00 0.00 0.00 55 1010.0
20260505025004 57 191 0.0 2.0 0.00 0.00 0.00 54 1009.4
20260505024512 57 190 0.0 0.0 0.00 0.00 0.00 53 1010.0
20260505024504 57 191 0.0 4.0 0.00 0.00 0.00 53 1009.5
20260505024004 57 191 0.0 4.0 0.00 0.00 0.00 52 1009.4
20260505023503 57 191 0.0 3.0 0.00 0.00 0.00 52 1009.5
20260505023015 57 190 0.0 0.0 0.00 0.00 0.00 52 1010.0
20260505023004 58 0 0.0 0.0 0.00 0.00 0.00 52 1009.4
20260505022004 58 191 0.0 5.0 0.00 0.00 0.00 50 1009.5
20260505021512 58 190 0.0 7.0 0.00 0.00 0.00 50 1010.0
20260505021503 58 191 0.0 7.0 0.00 0.00 0.00 50 1009.4
20260505021003 58 191 0.0 9.0 0.00 0.00 0.00 50 1009.4
20260505020503 58 191 0.0 9.0 0.00 0.00 0.00 49 1009.4
20260505020012 58 190 0.0 4.0 0.00 0.00 0.00 49 1009.9
20260505020004 58 191 0.0 3.0 0.00 0.00 0.00 49 1009.4
20260505015504 59 190 0.0 3.0 0.00 0.00 0.00 48 1009.4
20260505015003 59 190 0.0 2.0 0.00 0.00 0.00 48 1009.4
20260505014516 58 190 0.0 2.0 0.00 0.00 0.00 48 1010.0
20260505014504 59 191 0.0 2.0 0.00 0.00 0.00 48 1009.4
20260505014003 59 191 0.0 3.0 0.00 0.00 0.00 47 1009.4
20260505013503 59 190 0.0 3.0 0.00 0.00 0.00 47 1009.3
20260505013012 59 190 0.0 3.0 0.00 0.00 0.00 46 1009.9
20260505013004 60 191 0.0 3.0 0.00 0.00 0.00 46 1009.3
20260505012503 60 191 0.0 2.0 0.00 0.00 0.00 46 1009.1
20260505012003 60 191 0.0 7.0 0.00 0.00 0.00 46 1009.1
20260505011514 60 190 0.0 7.0 0.00 0.00 0.00 45 1009.5
20260505011504 60 190 0.0 7.0 0.00 0.00 0.00 46 1008.9
20260505010504 60 0 0.0 0.0 0.00 0.00 0.00 44 1008.9
20260505010015 60 190 0.0 3.0 0.00 0.00 0.00 44 1009.4
20260505010004 60 191 0.0 3.0 0.00 0.00 0.00 44 1008.8
20260505005004 61 191 0.0 9.0 0.00 0.00 0.00 43 1008.6
20260505004512 61 190 0.0 5.0 0.00 0.00 0.00 42 1009.1
20260505004004 61 191 0.0 3.0 0.00 0.00 0.00 42 1008.4
20260505003011 61 190 0.0 3.0 0.00 0.00 0.00 41 1008.8
20260505003004 62 191 0.0 2.0 0.00 0.00 0.00 41 1008.2
20260505002503 62 191 0.0 4.0 0.00 0.00 0.00 40 1008.1
20260505002003 62 191 0.0 4.0 0.00 0.00 0.00 40 1008.0
20260505001512 62 190 0.0 5.0 0.00 0.00 0.00 39 1008.5
20260505001503 63 191 0.0 5.0 0.00 0.00 0.00 39 1007.9
20260505001003 63 191 0.0 5.0 0.00 0.00 0.00 39 1007.8
20260505000504 63 191 0.0 2.0 0.00 0.00 0.00 38 1007.8
20260505000014 63 190 0.0 6.0 0.00 0.00 0.00 38 1008.2
20260505000004 63 191 0.0 7.0 0.00 0.00 0.00 38 1007.7
20260504235503 64 191 0.0 7.0 0.00 0.00 0.00 37 1007.5
20260504234513 64 190 0.0 5.0 0.00 0.00 0.00 37 1008.0
20260504234504 64 191 0.0 5.0 0.00 0.00 0.00 37 1007.4
20260504234004 64 191 0.0 5.0 0.00 0.00 0.00 37 1007.3
20260504233504 65 191 0.0 7.0 0.00 0.00 0.00 36 1007.2
20260504233004 65 191 1.0 9.0 0.00 0.00 0.00 36 1007.2
20260504232503 65 191 1.0 9.0 0.00 0.00 0.00 34 1007.0
20260504232003 65 191 1.0 8.0 0.00 0.00 0.00 34 1006.9
20260504231512 65 190 1.0 8.0 0.00 0.00 0.00 34 1007.5
20260504231503 66 191 1.0 8.0 0.00 0.00 0.00 34 1006.8
20260504231003 66 191 1.0 7.0 0.00 0.00 0.00 34 1006.7
20260504230503 66 191 1.0 7.0 0.00 0.00 0.00 34 1006.7
20260504230012 66 190 0.0 7.0 0.00 0.00 0.00 33 1007.3
20260504230003 66 190 0.0 7.0 0.00 0.00 0.00 33 1006.6
20260504224522 67 190 0.0 8.0 0.00 0.00 0.00 30 1007.1
20260504224503 68 191 1.0 8.0 0.00 0.00 0.00 30 1006.5
20260504223503 69 191 1.0 9.0 0.00 0.00 0.00 27 1006.5
20260504223012 69 190 1.0 7.0 0.00 0.00 0.00 24 1007.0
20260504223003 70 191 0.0 7.0 0.00 0.00 0.00 24 1006.4
20260504222503 70 191 0.0 2.0 0.00 0.00 0.00 24 1006.2
20260504222003 70 191 0.0 1.0 0.00 0.00 0.00 23 1006.3
20260504221512 70 190 0.0 1.0 0.00 0.00 0.00 21 1006.9
20260504221504 70 191 0.0 1.0 0.00 0.00 0.00 21 1006.3
20260504221004 70 191 0.0 1.0 0.00 0.00 0.00 24 1006.2
20260504220504 71 191 0.0 1.0 0.00 0.00 0.00 22 1006.3
20260504220012 70 190 0.0 1.0 0.00 0.00 0.00 24 1006.9
20260504220004 71 191 0.0 1.0 0.00 0.00 0.00 24 1006.3
20260504215503 70 0 0.0 0.0 0.00 0.00 0.00 23 1006.3
20260504215003 70 191 0.0 3.0 0.00 0.00 0.00 22 1006.3
20260504214523 70 190 0.0 3.0 0.00 0.00 0.00 22 1006.9
20260504214503 70 191 0.0 3.0 0.00 0.00 0.00 23 1006.3
20260504214003 70 191 0.0 5.0 0.00 0.00 0.00 23 1006.3
20260504213012 70 190 0.0 5.0 0.00 0.00 0.00 22 1006.9
20260504213004 71 191 0.0 5.0 0.00 0.00 0.00 22 1006.3
20260504212504 71 191 0.0 2.0 0.00 0.00 0.00 21 1006.3
20260504212004 71 191 0.0 5.0 0.00 0.00 0.00 22 1006.3
20260504211510 70 190 0.0 5.0 0.00 0.00 0.00 23 1006.9
20260504211003 71 190 0.0 2.0 0.00 0.00 0.00 23 1006.4
20260504210503 72 191 0.0 1.0 0.00 0.00 0.00 22 1006.5
20260504210016 71 190 0.0 1.0 0.00 0.00 0.00 22 1006.9
20260504210003 72 191 0.0 1.0 0.00 0.00 0.00 22 1006.3
20260504205503 72 191 0.0 1.0 0.00 0.00 0.00 21 1006.4
20260504205003 72 191 0.0 1.0 0.00 0.00 0.00 23 1006.4
20260504204512 72 190 0.0 2.0 0.00 0.00 0.00 23 1007.0
20260504204503 72 191 0.0 4.0 0.00 0.00 0.00 23 1006.3
20260504204003 73 191 0.0 7.0 0.00 0.00 0.00 22 1006.4
20260504203012 71 190 0.0 9.0 0.00 0.00 0.00 22 1007.0
20260504203004 72 0 0.0 0.0 0.00 0.00 0.00 22 1006.3
20260504202004 72 191 1.0 12.0 0.00 0.00 0.00 21 1006.3
20260504201512 72 190 0.0 12.0 0.00 0.00 0.00 21 1007.0
20260504201504 72 191 1.0 12.0 0.00 0.00 0.00 21 1006.3
20260504201004 73 191 1.0 7.0 0.00 0.00 0.00 20 1006.3
20260504200504 73 191 1.0 14.0 0.00 0.00 0.00 20 1006.4
20260504200017 73 190 0.0 14.0 0.00 0.00 0.00 19 1007.1
20260504200004 74 191 1.0 14.0 0.00 0.00 0.00 19 1006.5
20260504195504 74 191 1.0 10.0 0.00 0.00 0.00 21 1006.4
20260504195005 74 191 0.0 7.0 0.00 0.00 0.00 20 1006.6
20260504194513 73 190 0.0 7.0 0.00 0.00 0.00 22 1007.2
20260504193503 73 191 1.0 6.0 0.00 0.00 0.00 20 1006.6
20260504193012 72 190 1.0 10.0 0.00 0.00 0.00 20 1007.2
20260504193004 73 191 1.0 6.0 0.00 0.00 0.00 21 1006.7
20260504192504 73 191 0.0 3.0 0.00 0.00 0.00 21 1006.6
20260504191514 74 190 0.0 2.0 0.00 0.00 0.00 21 1007.3
20260504191504 74 190 0.0 2.0 0.00 0.00 0.00 21 1006.6
20260504191004 74 191 0.0 2.0 0.00 0.00 0.00 19 1006.7
20260504190503 74 191 1.0 12.0 0.00 0.00 0.00 23 1006.8
20260504190012 73 190 0.0 12.0 0.00 0.00 0.00 22 1007.5
20260504190004 73 191 1.0 12.0 0.00 0.00 0.00 22 1006.9
20260504184520 73 190 0.0 5.0 0.00 0.00 0.00 20 1007.6
20260504184503 74 191 1.0 6.0 0.00 0.00 0.00 20 1006.9
20260504184003 73 191 0.0 6.0 0.00 0.00 0.00 22 1006.9
20260504183504 74 191 0.0 5.0 0.00 0.00 0.00 18 1007.1
20260504183022 73 190 0.0 6.0 0.00 0.00 0.00 23 1007.7
20260504183003 74 191 0.0 5.0 0.00 0.00 0.00 23 1007.0
20260504182504 74 191 0.0 3.0 0.00 0.00 0.00 20 1007.2
20260504182003 73 191 0.0 7.0 0.00 0.00 0.00 20 1007.1
20260504181511 73 190 0.0 7.0 0.00 0.00 0.00 20 1007.9
20260504181503 73 191 1.0 7.0 0.00 0.00 0.00 20 1007.2
20260504181003 73 191 1.0 11.0 0.00 0.00 0.00 20 1007.1
20260504180503 73 191 1.0 11.0 0.00 0.00 0.00 24 1007.3
20260504180012 72 190 0.0 5.0 0.00 0.00 0.00 22 1008.0
20260504180004 72 191 1.0 18.0 0.00 0.00 0.00 22 1007.3
20260504175504 72 191 1.0 18.0 0.00 0.00 0.00 19 1007.4
20260504175004 72 191 0.0 6.0 0.00 0.00 0.00 21 1007.1
20260504174512 71 190 0.0 6.0 0.00 0.00 0.00 18 1007.9
20260504174503 72 190 1.0 15.0 0.00 0.00 0.00 21 1007.3
20260504174004 71 191 1.0 15.0 0.00 0.00 0.00 19 1007.3